Track SPACE STATION now! 10-day predictions The ISS Notification Tool HD Live streaming from Space Station SPACE STATION is classified as:
1 25544U 98067A 25110.50028097 .00017732 00000-0 32069-3 0 9993 2 25544 51.6382 232.7555 0005493 61.8645 30.8411 15.49747823506218